User: anonymous   Login
Location: Munkebjergskolens Observatorium
(55.3864°N, 10.3987°E)
Time: 09:06:07
(UTC+01:00)
Language:

COSMOS 2251 DEB - Orbit

View from above orbital plane
View from above orbital plane
View from above satellite
View from above satellite

Ground track
Ground track

The orbit data is extracted from the following two-line orbital elements,

1 34823U 93036ABN 23335.20267102  .00004131  00000-0  92617-3 0  9994
2 34823  74.0443  60.3817 0173092 331.2974  27.8739 14.48057853776078
Epoch (UTC): 01 December 2023 04:51:50
Eccentricity: 0.0173092
inclination: 74.0443°
perigee height: 609 km
apogee height: 855 km
right ascension of ascending node: 60.3817°
argument of perigee: 331.2974°
revolutions per day: 14.48057853
mean anomaly at epoch: 27.8739°
orbit number at epoch: 77607

The dashed part of the orbit path shows where the satellite is in the earth's shadow,  

DLR